Rosecrans Memorial Airport St Joseph US
ICAO: KSTJ
IATA: STJ
Category: Medium
Scheduled Services: No

Elevation: 826 ft
TransAlt. 18000 ft.

Airport Communications:
ST JOSEPH APP/DEP:120.35
ATIS:125.05
CTAF:126.9
GND:121.9
ANG COMD POST:34.94
ST JOSEPH TWR:126.9
UNICOM:122.95

KSTJ Zoom In..

Runways:

(A) RW 13 length 4797 ft width 75 ft
---- / hdg 132

(B) RW 17 length 8061 ft width 150 ft
---- / hdg 176

(C) RW 31 length 4797 ft width 75 ft
---- / hdg 312

(D) RW 35 length 8061 ft width 150 ft
ILS 110.30 / hdg 356

Location; KSTJ
Day. 14 / Time. 00.53 Zulu
* Altimeter: 29.96
* Temperature: 28° c. 82.4°f.
* Wind from: 140° Speed 05 kn.
Dewpoint: 22° c.
Visibility: 10 Statute Miles.
Clouds: Clear (automated report).

KSTJ 140053Z AUTO 14005KT 10SM CLR 28/22 A2996 RMK AO2 SLP135 T02830222 $

Going to: --> -->


Wind From 140°
Speed 05 kn.

 
 
jpsmedia worldairports.se 2020   terms of use